• In Österreich
  • Länderverzeichnis
  • Für 7 Tage
  • Wassertemperatur
  • Satellitenkarten
  • Wetterkarte
  • News
  • Widgets
  • user-avatar
    Anmelden

    Stündliche Wetter Slepnevo

    Heute, 20 September, Donnerstag

    Zeit Temperatur Niederschläge Wind Luftdruck Luftfeuchtigkeit
    00:00 +16°C° 0 mm 2 m/S 745 mmHg 95%
    01:00 +16°C° 0 mm 2 m/S 746 mmHg 96%
    02:00 +15°C° 0 mm 2 m/S 746 mmHg 97%
    03:00 +15°C° 0 mm 2 m/S 746 mmHg 98%
    04:00 +14°C° 0 mm 2 m/S 746 mmHg 98%
    05:00 +14°C° 0 mm 2 m/S 746 mmHg 98%
    06:00 +15°C° 0 mm 2 m/S 747 mmHg 95%
    07:00 +15°C° 0 mm 2 m/S 747 mmHg 91%
    08:00 +16°C° 0 mm 2 m/S 747 mmHg 88%
    09:00 +18°C° 0 mm 2 m/S 747 mmHg 80%
    10:00 +19°C° 0 mm 3 m/S 747 mmHg 71%
    11:00 +21°C° 0 mm 3 m/S 748 mmHg 62%
    12:00 +22°C° 0 mm 3 m/S 748 mmHg 60%
    13:00 +22°C° 0 mm 3 m/S 748 mmHg 57%
    14:00 +24°C° 0 mm 3 m/S 748 mmHg 54%
    15:00 +22°C° 0 mm 3 m/S 748 mmHg 60%
    16:00 +21°C° 0 mm 2 m/S 747 mmHg 66%
    17:00 +20°C° 0 mm 2 m/S 747 mmHg 71%
    18:00 +19°C° 0 mm 2 m/S 747 mmHg 76%
    19:00 +17°C° 0 mm 2 m/S 748 mmHg 80%
    20:00 +16°C° 0 mm 2 m/S 748 mmHg 85%
    21:00 +16°C° 0 mm 2 m/S 748 mmHg 86%
    22:00 +15°C° 0 mm 2 m/S 748 mmHg 86%
    23:00 +15°C° 0 mm 2 m/S 748 mmHg 87%

    Morgen, 21 September, Freitag

    Zeit Temperatur Niederschläge Wind Luftdruck Luftfeuchtigkeit
    00:00 +15°C° 0 mm 2 m/S 748 mmHg 89%
    01:00 +15°C° 0 mm 2 m/S 748 mmHg 91%
    02:00 +15°C° 0 mm 2 m/S 748 mmHg 92%
    03:00 +15°C° 0 mm 2 m/S 748 mmHg 94%
    04:00 +15°C° 0 mm 2 m/S 748 mmHg 95%
    05:00 +15°C° 0 mm 2 m/S 748 mmHg 97%
    06:00 +16°C° 0 mm 2 m/S 748 mmHg 93%
    07:00 +17°C° 0 mm 2 m/S 749 mmHg 89%
    08:00 +18°C° 0 mm 3 m/S 749 mmHg 85%
    09:00 +20°C° 0 mm 3 m/S 749 mmHg 78%
    10:00 +22°C° 0 mm 3 m/S 749 mmHg 72%
    11:00 +25°C° 0 mm 3 m/S 749 mmHg 65%
    12:00 +25°C° 0.3 mm 4 m/S 748 mmHg 64%
    13:00 +26°C° 0.3 mm 4 m/S 748 mmHg 64%
    14:00 +26°C° 0.3 mm 4 m/S 748 mmHg 63%
    15:00 +25°C° 0 mm 3 m/S 748 mmHg 67%
    16:00 +24°C° 0 mm 3 m/S 747 mmHg 71%
    17:00 +22°C° 0 mm 3 m/S 747 mmHg 75%
    18:00 +21°C° 0 mm 3 m/S 747 mmHg 77%
    19:00 +20°C° 0 mm 3 m/S 747 mmHg 80%
    20:00 +20°C° 0 mm 3 m/S 746 mmHg 83%
    21:00 +19°C° 0 mm 4 m/S 746 mmHg 82%
    22:00 +19°C° 0 mm 4 m/S 746 mmHg 82%
    23:00 +18°C° 0 mm 4 m/S 746 mmHg 82%

    übermorgen, 22 September, Samstag

    Zeit Temperatur Niederschläge Wind Luftdruck Luftfeuchtigkeit
    00:00 +18°C° 0 mm 4 m/S 745 mmHg 81%
    01:00 +18°C° 0 mm 4 m/S 745 mmHg 79%
    02:00 +18°C° 0 mm 4 m/S 744 mmHg 78%
    03:00 +18°C° 0 mm 4 m/S 744 mmHg 78%
    04:00 +17°C° 0 mm 5 m/S 743 mmHg 77%
    05:00 +16°C° 0 mm 5 m/S 743 mmHg 76%
    06:00 +17°C° 0 mm 5 m/S 742 mmHg 73%
    07:00 +17°C° 0 mm 5 m/S 742 mmHg 70%
    08:00 +19°C° 0 mm 6 m/S 742 mmHg 66%
    09:00 +20°C° 0 mm 6 m/S 742 mmHg 64%
    10:00 +21°C° 0 mm 6 m/S 742 mmHg 62%
    11:00 +21°C° 0 mm 6 m/S 742 mmHg 60%
    12:00 +19°C° 0.5 mm 5 m/S 742 mmHg 70%
    13:00 +15°C° 0.5 mm 4 m/S 743 mmHg 79%
    14:00 +12°C° 0.5 mm 3 m/S 743 mmHg 89%
    15:00 +12°C° 0.6 mm 3 m/S 743 mmHg 90%
    16:00 +11°C° 0.6 mm 3 m/S 743 mmHg 92%
    17:00 +12°C° 0.6 mm 2 m/S 744 mmHg 93%
    18:00 +12°C° 0.7 mm 2 m/S 744 mmHg 93%
    19:00 +11°C° 0.7 mm 3 m/S 744 mmHg 93%
    20:00 +10°C° 0.7 mm 3 m/S 744 mmHg 93%
    21:00 +10°C° 0.5 mm 3 m/S 744 mmHg 92%
    22:00 +10°C° 0.5 mm 3 m/S 744 mmHg 92%
    23:00 +10°C° 0.5 mm 3 m/S 744 mmHg 91%

    23 September, Sonntag

    Zeit Temperatur Niederschläge Wind Luftdruck Luftfeuchtigkeit
    00:00 +9°C° 0 mm 3 m/S 744 mmHg 92%
    01:00 +9°C° 0 mm 3 m/S 744 mmHg 92%
    02:00 +9°C° 0 mm 2 m/S 743 mmHg 92%
    03:00 +9°C° 0 mm 2 m/S 743 mmHg 93%
    04:00 +8°C° 0 mm 2 m/S 743 mmHg 94%
    05:00 +8°C° 0 mm 2 m/S 743 mmHg 94%
    06:00 +8°C° 0 mm 3 m/S 742 mmHg 91%
    07:00 +9°C° 0 mm 3 m/S 742 mmHg 89%
    08:00 +9°C° 0 mm 3 m/S 742 mmHg 86%
    09:00 +10°C° 0 mm 4 m/S 742 mmHg 79%
    10:00 +12°C° 0 mm 4 m/S 742 mmHg 72%
    11:00 +13°C° 0 mm 5 m/S 741 mmHg 65%
    12:00 +13°C° 0.2 mm 5 m/S 741 mmHg 64%
    13:00 +14°C° 0.2 mm 5 m/S 741 mmHg 62%
    14:00 +14°C° 0.2 mm 5 m/S 741 mmHg 61%
    15:00 +13°C° 0.1 mm 4 m/S 741 mmHg 65%
    16:00 +12°C° 0.1 mm 4 m/S 741 mmHg 70%
    17:00 +11°C° 0.1 mm 3 m/S 741 mmHg 74%
    18:00 +10°C° 0.1 mm 3 m/S 741 mmHg 78%
    19:00 +9°C° 0.1 mm 3 m/S 741 mmHg 81%
    20:00 +8°C° 0.1 mm 3 m/S 741 mmHg 85%
    21:00 +8°C° 0 mm 3 m/S 741 mmHg 87%
    22:00 +8°C° 0 mm 3 m/S 741 mmHg 88%
    23:00 +7°C° 0 mm 3 m/S 741 mmHg 89%

    24 September, Montag

    Zeit Temperatur Niederschläge Wind Luftdruck Luftfeuchtigkeit
    00:00 +7°C° 0 mm 3 m/S 741 mmHg 91%
    01:00 +7°C° 0 mm 3 m/S 740 mmHg 93%
    02:00 +6°C° 0 mm 2 m/S 740 mmHg 95%
    03:00 +6°C° 0 mm 2 m/S 739 mmHg 95%
    04:00 +6°C° 0 mm 2 m/S 739 mmHg 95%
    05:00 +6°C° 0 mm 2 m/S 738 mmHg 95%
    06:00 +7°C° 0.3 mm 2 m/S 738 mmHg 94%
    07:00 +7°C° 0.3 mm 3 m/S 737 mmHg 93%
    08:00 +7°C° 0.3 mm 3 m/S 737 mmHg 92%
    09:00 +7°C° 1.3 mm 4 m/S 735 mmHg 91%
    10:00 +7°C° 1.3 mm 4 m/S 734 mmHg 91%
    11:00 +7°C° 1.3 mm 5 m/S 733 mmHg 91%
    12:00 +7°C° 3.4 mm 5 m/S 732 mmHg 92%
    13:00 +7°C° 3.4 mm 5 m/S 730 mmHg 93%
    14:00 +6°C° 3.4 mm 5 m/S 728 mmHg 94%
    15:00 +6°C° 4.6 mm 5 m/S 727 mmHg 94%
    16:00 +6°C° 4.6 mm 5 m/S 726 mmHg 95%
    17:00 +6°C° 4.6 mm 4 m/S 725 mmHg 96%
    18:00 +6°C° 2.1 mm 4 m/S 725 mmHg 95%
    19:00 +6°C° 2.1 mm 4 m/S 724 mmHg 95%
    20:00 +6°C° 2.1 mm 4 m/S 724 mmHg 95%
    21:00 +6°C° 1.9 mm 5 m/S 725 mmHg 94%
    22:00 +5°C° 1.9 mm 6 m/S 725 mmHg 93%
    23:00 +5°C° 1.9 mm 7 m/S 726 mmHg 93%

    25 September, Dienstag

    Zeit Temperatur Niederschläge Wind Luftdruck Luftfeuchtigkeit
    00:00 +5°C° 1.5 mm 8 m/S 727 mmHg 91%
    01:00 +4°C° 1.5 mm 8 m/S 728 mmHg 90%
    02:00 +3°C° 1.5 mm 9 m/S 729 mmHg 89%
    03:00 +3°C° 0.9 mm 9 m/S 730 mmHg 88%
    04:00 +4°C° 0.9 mm 8 m/S 731 mmHg 87%
    05:00 +4°C° 0.9 mm 8 m/S 732 mmHg 86%
    06:00 +4°C° 0.3 mm 8 m/S 733 mmHg 86%
    07:00 +4°C° 0.3 mm 8 m/S 734 mmHg 85%
    08:00 +4°C° 0.3 mm 7 m/S 735 mmHg 85%
    09:00 +4°C° 0.1 mm 7 m/S 736 mmHg 82%
    10:00 +4°C° 0.1 mm 7 m/S 737 mmHg 80%
    11:00 +5°C° 0.1 mm 7 m/S 738 mmHg 77%
    12:00 +5°C° 0.2 mm 7 m/S 739 mmHg 74%
    13:00 +6°C° 0.2 mm 7 m/S 740 mmHg 70%
    14:00 +6°C° 0.2 mm 7 m/S 741 mmHg 67%
    15:00 +7°C° 0.1 mm 6 m/S 742 mmHg 67%
    16:00 +6°C° 0.1 mm 5 m/S 742 mmHg 67%
    17:00 +6°C° 0.1 mm 4 m/S 743 mmHg 68%
    18:00 +5°C° 0 mm 4 m/S 744 mmHg 71%
    19:00 +5°C° 0 mm 4 m/S 744 mmHg 73%
    20:00 +4°C° 0 mm 3 m/S 745 mmHg 76%
    21:00 +4°C° 0 mm 3 m/S 746 mmHg 77%
    22:00 +4°C° 0 mm 3 m/S 746 mmHg 78%
    23:00 +4°C° 0 mm 3 m/S 747 mmHg 80%
    Mehr zeigen